TimeEST,TemperatureF,Dew PointF,Humidity,Sea Level PressureIn,VisibilityMPH,Wind Direction,Wind SpeedMPH,Gust SpeedMPH,PrecipitationIn,Events,Conditions,WindDirDegrees,DateUTC
12:15 AM,46.6,33.3,60,30.25,10.0,WSW,9.2,-,N/A,,Clear,250,2013-01-10 05:15:00
12:35 AM,46.0,32.9,60,30.27,10.0,West,10.4,-,N/A,,Clear,260,2013-01-10 05:35:00
12:55 AM,46.0,32.2,58,30.27,10.0,WSW,8.1,-,N/A,,Clear,250,2013-01-10 05:55:00
1:15 AM,45.7,32.0,59,30.28,10.0,West,10.4,-,N/A,,Clear,260,2013-01-10 06:15:00
1:35 AM,45.9,31.6,58,30.29,10.0,West,10.4,-,N/A,,Clear,260,2013-01-10 06:35:00
1:55 AM,45.5,31.1,57,30.31,10.0,West,6.9,-,N/A,,Clear,260,2013-01-10 06:55:00
3:15 AM,44.1,29.3,56,30.34,10.0,West,10.4,-,N/A,,Clear,270,2013-01-10 08:15:00
3:35 AM,42.4,29.1,59,30.35,10.0,West,9.2,-,N/A,,Clear,280,2013-01-10 08:35:00
4:15 AM,42.1,28.4,58,30.36,10.0,West,6.9,-,N/A,,Clear,270,2013-01-10 09:15:00
4:35 AM,41.7,28.0,58,30.36,10.0,West,6.9,-,N/A,,Clear,270,2013-01-10 09:35:00
5:15 AM,39.6,27.5,62,30.38,10.0,Calm,Calm,-,N/A,,Clear,0,2013-01-10 10:15:00
5:35 AM,37.8,27.5,67,30.39,10.0,WNW,5.8,-,N/A,,Clear,290,2013-01-10 10:35:00
5:55 AM,41.5,27.5,57,30.40,10.0,NW,11.5,18.4,N/A,,Clear,310,2013-01-10 10:55:00
6:15 AM,41.7,26.8,55,30.41,10.0,WNW,9.2,-,N/A,,Clear,300,2013-01-10 11:15:00
6:35 AM,41.2,26.6,56,30.43,10.0,WNW,6.9,-,N/A,,Clear,300,2013-01-10 11:35:00
6:55 AM,41.4,26.4,55,30.43,10.0,WNW,6.9,-,N/A,,Clear,300,2013-01-10 11:55:00
7:15 AM,41.4,26.4,55,30.44,10.0,NW,8.1,-,N/A,,Clear,310,2013-01-10 12:15:00
7:35 AM,41.0,26.4,56,30.45,10.0,WNW,4.6,-,N/A,,Clear,300,2013-01-10 12:35:00
7:55 AM,41.5,26.2,55,30.47,10.0,WNW,3.5,-,N/A,,Clear,290,2013-01-10 12:55:00
8:15 AM,42.3,26.6,54,30.48,10.0,NW,4.6,-,N/A,,Clear,320,2013-01-10 13:15:00
8:35 AM,42.6,27.0,54,30.49,10.0,WNW,5.8,-,N/A,,Clear,300,2013-01-10 13:35:00
8:55 AM,43.9,26.6,51,30.50,10.0,NW,6.9,-,N/A,,Clear,320,2013-01-10 13:55:00
9:15 AM,44.6,26.2,49,30.51,10.0,NNW,10.4,17.3,N/A,,Clear,330,2013-01-10 14:15:00
9:35 AM,45.5,25.7,46,30.51,10.0,WNW,13.8,-,N/A,,Clear,300,2013-01-10 14:35:00
10:15 AM,46.4,24.6,42,30.51,10.0,NNW,13.8,18.4,N/A,,Clear,330,2013-01-10 15:15:00
10:35 AM,46.8,24.8,42,30.51,10.0,WNW,11.5,17.3,N/A,,Clear,300,2013-01-10 15:35:00
10:55 AM,46.8,24.3,41,30.51,10.0,NW,13.8,20.7,N/A,,Clear,310,2013-01-10 15:55:00
11:15 AM,47.1,23.0,39,30.50,10.0,NW,13.8,19.6,N/A,,Clear,320,2013-01-10 16:15:00
11:35 AM,47.7,23.0,38,30.49,10.0,NW,9.2,20.7,N/A,,Clear,320,2013-01-10 16:35:00
12:15 PM,48.4,23.5,38,30.48,10.0,NNW,11.5,20.7,N/A,,Clear,330,2013-01-10 17:15:00
12:35 PM,49.1,23.9,37,30.47,10.0,NW,16.1,20.7,N/A,,Clear,320,2013-01-10 17:35:00
1:15 PM,49.3,24.3,38,30.46,10.0,WNW,13.8,20.7,N/A,,Clear,300,2013-01-10 18:15:00
1:35 PM,48.7,23.2,37,30.47,10.0,WNW,11.5,19.6,N/A,,Clear,300,2013-01-10 18:35:00
1:55 PM,49.8,23.5,36,30.47,10.0,NW,10.4,-,N/A,,Clear,320,2013-01-10 18:55:00
2:15 PM,50.0,23.2,35,30.47,10.0,WNW,11.5,-,N/A,,Clear,300,2013-01-10 19:15:00
2:35 PM,50.0,23.5,36,30.48,10.0,WNW,9.2,18.4,N/A,,Clear,300,2013-01-10 19:35:00
2:55 PM,50.4,23.7,35,30.48,10.0,WNW,12.7,16.1,N/A,,Clear,290,2013-01-10 19:55:00
3:15 PM,50.4,23.4,35,30.49,10.0,WNW,10.4,-,N/A,,Clear,290,2013-01-10 20:15:00
3:35 PM,50.2,23.0,35,30.49,10.0,WNW,9.2,-,N/A,,Clear,290,2013-01-10 20:35:00
3:55 PM,50.0,23.4,35,30.50,10.0,WNW,5.8,-,N/A,,Clear,290,2013-01-10 20:55:00
4:15 PM,49.1,24.1,38,30.50,10.0,West,6.9,-,N/A,,Clear,280,2013-01-10 21:15:00
4:35 PM,48.2,23.7,38,30.50,10.0,NW,3.5,-,N/A,,Clear,320,2013-01-10 21:35:00
4:55 PM,47.8,23.7,39,30.51,10.0,NW,4.6,-,N/A,,Clear,310,2013-01-10 21:55:00
5:15 PM,46.4,24.8,43,30.51,10.0,NW,4.6,-,N/A,,Clear,310,2013-01-10 22:15:00
5:35 PM,46.8,23.9,41,30.52,10.0,Calm,Calm,-,N/A,,Clear,0,2013-01-10 22:35:00
5:55 PM,43.0,24.8,49,30.52,10.0,Calm,Calm,-,N/A,,Clear,0,2013-01-10 22:55:00
6:15 PM,44.2,24.6,46,30.53,10.0,WNW,3.5,-,N/A,,Clear,290,2013-01-10 23:15:00
6:35 PM,44.2,24.8,46,30.53,10.0,WNW,4.6,-,N/A,,Clear,300,2013-01-10 23:35:00
7:15 PM,44.2,24.6,46,30.53,10.0,Calm,Calm,-,N/A,,Clear,0,2013-01-11 00:15:00
7:35 PM,42.8,24.8,49,30.53,10.0,Calm,Calm,-,N/A,,Clear,0,2013-01-11 00:35:00
7:55 PM,40.6,25.5,55,30.53,10.0,Calm,Calm,-,N/A,,Clear,0,2013-01-11 00:55:00
8:15 PM,42.6,25.2,50,30.52,10.0,Calm,Calm,-,N/A,,Clear,0,2013-01-11 01:15:00
8:35 PM,42.3,25.7,52,30.53,10.0,Calm,Calm,-,N/A,,Clear,0,2013-01-11 01:35:00
8:55 PM,41.7,25.7,53,30.55,10.0,WNW,4.6,-,N/A,,Clear,290,2013-01-11 01:55:00
9:15 PM,41.5,25.9,54,30.54,10.0,WNW,3.5,-,N/A,,Clear,300,2013-01-11 02:15:00
9:35 PM,41.4,26.2,55,30.53,10.0,Calm,Calm,-,N/A,,Clear,0,2013-01-11 02:35:00
9:55 PM,42.4,25.9,52,30.53,10.0,North,5.8,-,N/A,,Clear,10,2013-01-11 02:55:00
10:15 PM,42.8,25.7,51,30.53,10.0,Calm,Calm,-,N/A,,Clear,0,2013-01-11 03:15:00
10:35 PM,42.8,25.7,51,30.54,10.0,NE,3.5,-,N/A,,Clear,40,2013-01-11 03:35:00
10:55 PM,43.2,25.2,49,30.54,10.0,NNE,6.9,-,N/A,,Clear,30,2013-01-11 03:55:00
11:15 PM,43.3,24.4,47,30.54,10.0,NNE,6.9,-,N/A,,Clear,20,2013-01-11 04:15:00
11:35 PM,42.8,24.4,48,30.55,10.0,NE,3.5,-,N/A,,Clear,40,2013-01-11 04:35:00
11:55 PM,42.4,24.6,49,30.56,10.0,NE,3.5,-,N/A,,Clear,50,2013-01-11 04:55:00